Flag for U.S.A. Weather past 2 weeks in Warminster Township, Pennsylvania, U.S.A.

Now
79 °F

Sunny.


Feels Like: 82 °F
Forecast: 68 / 84 °F
Wind: 7 mph from Northeast

Location: Doylestown Airport

Current Time: Sep 4, 2015 at 10:55:27 AM

Latest Report: Sep 4, 2015 at 9:54 AM


Visibility: 10 mi

Pressure: 30.02 "Hg

Humidity: 72%

Dew point: 69 °F

Location of Warminster TownshipLocation

Historic Weather in Warminster Township — Graph

°F

Warminster Township temperature yesterday

Maximum temperature yesterday: 90 °F (at 3:54 PM)
Minimum temperature yesterday: 66 °F (at 4:54 AM)
Average temperature yesterday: 78 °F

Past Weeks' High & Low Weather Summary

 TemperatureHumidityPressure
High90 °F (Sep 3, 3:54 PM)100% (Aug 20, 6:54 PM)30.22 "Hg (Aug 20, 6:54 PM)
Low53 °F (Aug 28, 6:54 AM)31% (Aug 22, 3:54 PM)29.81 "Hg (Aug 24, 5:54 PM)
Average72 °F71%30.00 "Hg
* Reported Aug 20 8:01 AM — Sep 4 8:54 AM, Warminster Township, Weather by CustomWeather, © 2015

Note: Actual official high and low records may vary slightly from our data, if they occured in-between our weather recording intervals... More about our weather records

Advertising

Warminster Township weather history for previous 24 hours

 ConditionsComfort  
Time TempWeatherWind HumidityBarometerVisibility
8:54 AM
Fri, Sep 4
75 °FSunny.8 mph76%30.01 "Hg10 mi
7:54 AM71 °FSunny.6 mph87%30.00 "Hg10 mi
6:54 AM69 °FClear.5 mph90%29.97 "Hg10 mi
5:54 AM69 °FClear.3 mph93%29.94 "Hg10 mi
4:54 AM70 °FClear.5 mph90%29.91 "Hg10 mi
3:54 AM70 °FClear.5 mph90%29.91 "Hg10 mi
2:54 AM71 °FClear.3 mph87%29.90 "Hg10 mi
1:54 AM73 °FClear.No wind81%29.89 "Hg10 mi
12:54 AM73 °FClear.No wind84%29.89 "Hg10 mi
11:54 PM
Thu, Sep 3
74 °FClear.No wind79%29.88 "Hg10 mi
10:54 PM77 °FOvercast.No wind71%29.88 "Hg10 mi
9:54 PM78 °FPassing clouds.3 mph69%29.87 "Hg10 mi
8:54 PM79 °FPassing clouds.No wind69%29.87 "Hg10 mi
7:54 PM79 °FSunny.No wind67%29.84 "Hg10 mi
6:54 PM84 °FPassing clouds.3 mph57%29.83 "Hg10 mi
5:54 PM88 °FSunny.5 mph46%29.82 "Hg10 mi
4:54 PM90 °FSunny.5 mph43%29.82 "Hg10 mi
3:54 PM90 °FSunny.6 mph43%29.83 "Hg10 mi
2:54 PM89 °FSunny.8 mph43%29.84 "Hg10 mi
1:54 PM89 °FSunny.7 mph45%29.85 "Hg10 mi
12:54 PM87 °FSunny.7 mph50%29.86 "Hg10 mi
11:54 AM86 °FSunny.8 mph53%29.88 "Hg10 mi
10:54 AM84 °FSunny.10 mph57%29.90 "Hg10 mi
Weather by CustomWeather, © 2015

See weather overviewHow to use our weather pages